Location: ??????
(31.2056°N, 45.3906°E)
Time: 18:53:51
(UTC+00:00)

NOSS 3-4 (A) - Pass Details

Date: 09 April 2020
Orbit: 895 x 1317 km, 63.4° (Epoch: 27 May)

Event Time Altitude Azimuth Distance (km) Brightness Sun altitude
Rises 17:43:13 0° 325° (NW) 3,955 7.7 -28.8°
Reaches altitude 10° 17:45:51 10° 322° (NW) 3,052 6.9 -29.3°
Maximum altitude 17:53:04 59° 245° (WSW) 1,397 4.3 -30.6°
Enters shadow 17:55:05 47° 196° (SSW) 1,613 4.4 -31.0°
